Temperature
22 22 22 21 21 21 20 20 20 20 20 19 19 19 19 19 19 19 19 19 18 18 18 18 18 18 18 18 18 18 18 18 18 18 18 18 18 18 18 18 18 18 18
22 22 22 21 21 21 21 20 20 20 20 20 20 19 19 19 19 19 19 19 18 18 18 18 18 18 18 18 18 18 18 18 18 18 18 18 18 18 18 18 18 18 18
22 22 22 22 22 21 21 21 21 20 20 20 20 19 19 19 19 19 19 19 18 18 18 18 18 18 18 18 18 18 18 18 18 18 18 17 17 18 18 18 18 18 18
23 23 22 22 22 22 21 21 21 21 20 20 20 19 19 19 19 19 19 19 19 18 18 18 18 18 18 18 18 18 18 18 18 18 17 17 17 17 17 17 17 17 17
23 23 23 23 22 22 22 21 21 21 20 20 20 19 19 20 19 19 19 19 18 18 18 18 18 18 18 18 18 18 18 18 18 18 17 17 17 17 17 17 17 17 17
23 23 23 22 22 22 21 21 21 21 20 20 20 20 19 19 19 19 19 19 19 18 18 18 18 18 18 18 17 17 17 17 17 17 17 17 17 17 17 17 17 17 17
23 23 22 22 22 22 22 21 21 21 20 20 20 20 20 19 19 19 19 19 19 18 18 18 18 18 18 18 17 17 17 17 17 17 17 17 17 17 17 17 17 17 17
22 23 23 23 22 22 22 21 21 21 20 20 20 20 20 19 19 19 19 19 19 19 18 18 18 18 18 17 17 17 17 17 17 17 17 17 17 17 17 16 16 16 16
22 23 23 22 22 22 22 22 21 21 21 20 20 20 20 19 19 19 19 19 18 18 18 18 18 18 17 17 17 17 17 17 17 17 17 17 17 16 16 16 16 16 16
22 22 22 22 22 22 22 21 21 21 21 21 20 20 20 20 19 19 19 19 18 18 18 18 18 18 17 17 17 17 17 17 17 17 17 17 17 16 16 16 16 16 16
21 22 22 22 22 22 21 21 21 21 21 20 20 20 20 19 19 19 19 18 18 18 18 18 18 17 17 17 17 17 17 16 16 16 16 16 16 16 16 16 16 16 16
21 21 22 22 22 21 21 21 21 21 21 20 20 20 19 19 19 19 19 18 18 18 18 18 18 17 17 17 17 17 17 16 16 16 16 16 16 16 16 16 16 16 15
21 21 21 21 21 21 21 21 21 20 20 20 20 19 19 19 19 19 18 18 18 18 18 17 17 17 17 17 17 17 16 16 16 16 16 16 16 16 16 16 15 15 15
21 20 21 21 21 21 21 21 20 20 20 20 20 19 19 19 19 18 18 18 18 18 17 17 17 17 17 17 17 17 16 16 16 16 16 16 16 16 16 15 15 15 15
20 20 20 21 20 20 20 20 20 20 19 19 19 19 19 18 18 18 18 18 18 17 17 17 17 17 17 17 17 16 16 16 16 16 16 16 15 15 15 15 15 15 15
20 20 20 20 20 20 20 20 19 19 19 19 19 19 19 18 18 18 18 18 18 17 17 17 17 17 16 16 16 16 16 16 16 16 15 15 15 15 15 15 15 14 14
20 20 20 20 20 20 20 19 19 19 19 19 19 19 18 18 18 18 17 17 17 17 17 17 16 16 16 16 16 16 16 16 15 15 15 15 15 15 15 14 14 14 14
20 20 20 20 20 20 19 19 19 18 18 18 18 18 18 18 18 17 17 17 17 17 17 16 16 16 16 16 16 16 15 15 15 15 15 15 15 14 14 14 14 14 14
21 20 20 20 20 20 19 19 18 18 18 18 18 18 18 18 17 17 17 17 17 17 16 16 16 16 16 16 15 15 15 15 15 15 15 14 14 14 14 14 14 13 13
20 20 20 19 19 19 19 18 18 18 18 18 18 17 17 17 17 17 17 16 16 16 16 16 16 16 15 15 15 15 15 15 14 14 14 14 14 14 13 13 13 13 13
20 19 19 19 19 19 18 18 18 18 17 17 17 17 17 17 16 16 16 16 16 16 16 16 15 15 15 15 15 15 14 14 14 14 14 14 13 13 13 13 13 13 13
19 19 19 19 18 18 18 18 17 17 17 17 17 16 16 16 16 16 15 15 15 15 15 15 15 15 15 15 14 14 14 14 14 14 14 13 13 13 13 13 12 12 12
19 19 19 18 18 18 17 17 17 17 16 16 16 16 16 16 15 15 15 15 15 15 15 15 15 15 14 14 14 14 13 13 13 13 13 13 13 13 13 12 12 12 11
19 18 18 18 18 17 17 17 17 16 16 16 16 16 15 15 15 15 15 15 14 14 14 14 14 14 14 14 14 14 13 13 13 13 13 12 12 12 12 12 11 11 11
18 18 18 18 17 17 17 16 16 16 16 15 15 15 15 15 14 14 14 14 14 14 14 14 14 14 14 14 13 13 13 13 13 12 12 12 12 12 11 11 11 11 11
18 18 17 17 17 16 16 16 16 15 15 15 15 14 14 14 14 14 14 14 14 14 14 13 13 13 13 13 13 13 13 13 12 12 12 12 12 11 11 11 11 11 11
Wind_Speed
7 6 6 7 7 6 6 6 6 5 4 2 3 2 2 2 2 2 3 3 3 3 3 2 1 1 1 1 1 1 1 0 1 1 1 2 1 0 0 1 1 1 2
5 6 6 7 8 8 8 7 6 5 5 4 3 3 3 2 2 2 2 3 3 3 3 3 2 2 1 1 1 2 1 0 1 1 1 1 2 2 1 0 1 1 1
9 8 8 8 8 9 9 9 7 7 6 5 3 2 2 1 0 1 1 1 3 3 3 3 3 2 2 2 2 2 2 1 1 1 2 2 1 1 2 1 1 1 0
9 9 9 9 10 10 8 7 7 7 6 6 5 5 4 3 3 2 1 1 1 2 3 3 3 3 2 2 3 2 2 3 2 1 1 1 2 2 1 2 1 1 1
9 10 11 11 9 8 7 6 6 6 5 6 6 5 4 3 2 2 2 1 1 2 2 3 3 2 2 3 3 2 2 2 3 2 1 1 1 1 2 2 2 2 1
9 8 7 7 6 7 6 6 6 5 5 6 6 6 6 5 3 3 3 2 1 1 2 3 2 2 2 3 3 2 2 2 2 2 2 2 2 2 2 2 2 2 1
6 7 8 8 7 8 8 7 7 7 6 6 6 6 7 6 6 5 4 3 2 2 2 2 2 2 2 2 2 2 2 2 2 2 2 2 2 2 2 2 1 1 1
4 5 7 8 7 8 8 8 8 8 8 8 7 6 6 6 5 5 5 5 4 3 3 3 3 2 3 2 2 2 2 2 2 2 2 2 2 3 3 3 2 1 1
4 4 5 5 6 6 7 8 9 8 8 9 7 6 6 6 5 5 5 4 4 3 4 3 3 2 2 2 2 2 2 2 2 2 2 2 2 2 2 3 3 3 2
2 3 4 4 5 6 5 5 7 8 8 8 8 7 7 6 6 5 5 5 4 3 4 3 3 3 3 3 2 2 2 2 2 2 2 2 2 2 2 3 2 3 3
2 2 2 3 4 4 4 5 5 5 6 7 7 6 6 6 6 6 6 5 5 5 4 4 4 4 3 3 3 3 2 2 2 2 2 2 2 2 2 2 2 2 2
1 1 2 2 2 3 3 4 4 5 5 5 5 6 5 5 5 5 5 5 4 4 4 4 4 4 4 4 4 4 3 3 3 3 2 3 2 2 2 2 2 2 3
1 2 2 2 1 2 2 3 3 4 4 4 5 5 5 5 4 4 4 4 4 4 4 4 4 4 4 4 4 4 4 4 4 4 4 4 3 2 2 2 2 2 2
2 2 1 0 0 1 1 1 1 2 3 3 4 4 4 5 5 4 3 4 4 4 4 4 4 4 4 4 4 4 4 4 4 4 4 4 4 4 3 2 2 2 2
1 1 1 1 1 1 0 1 1 1 2 3 3 4 4 4 4 4 5 5 4 4 3 3 3 3 3 4 4 4 4 3 2 2 2 3 3 3 3 2 2 3 2
3 2 2 1 2 1 1 1 1 1 2 2 2 2 2 3 4 5 5 5 4 4 3 3 3 3 4 4 5 4 4 3 3 2 2 1 1 2 2 3 3 4 4
5 4 4 3 3 2 2 2 1 1 2 2 1 2 2 3 3 4 4 5 5 4 4 4 3 4 5 5 5 5 4 3 3 3 2 2 1 2 2 2 2 2 3
6 5 4 3 3 2 2 1 2 2 2 1 1 1 1 2 2 2 4 4 3 4 4 4 4 4 5 4 5 5 4 3 3 3 3 3 2 2 3 2 2 1 1
6 5 4 3 3 3 3 3 2 2 2 1 1 2 2 2 3 3 3 3 3 4 4 4 4 4 4 4 5 5 3 3 3 3 3 3 3 3 4 4 3 1 1
3 3 3 2 3 3 3 3 2 2 2 3 3 2 2 3 4 4 3 2 3 4 4 3 4 4 4 5 6 6 3 3 2 2 2 3 4 4 5 4 4 3 2
3 4 4 3 3 3 4 3 2 3 3 2 2 2 2 3 3 3 3 3 3 3 3 3 3 3 4 5 6 6 5 5 4 3 3 3 4 5 5 5 4 5 4
4 4 4 2 2 3 4 4 3 3 2 1 1 2 2 2 2 2 2 2 3 3 3 3 3 3 3 4 5 7 7 6 5 5 4 4 5 5 4 3 3 3 3
4 3 4 3 1 2 3 4 4 2 1 1 1 1 1 1 1 2 2 2 3 3 3 3 4 3 2 3 4 6 8 7 5 4 5 5 5 4 3 3 3 4 3
4 4 4 3 2 2 3 3 3 3 3 2 2 1 1 1 1 1 1 2 2 3 3 4 4 3 3 3 3 3 4 5 4 3 2 3 3 2 2 2 2 2 3
2 4 4 4 4 3 2 2 2 3 3 2 2 1 1 2 1 1 1 2 3 3 4 4 4 4 4 5 6 5 4 4 4 3 2 1 2 2 2 1 1 2 2
3 3 3 3 3 3 3 2 3 3 3 2 1 1 1 1 1 1 1 2 1 1 3 4 4 4 5 5 5 6 6 6 7 4 3 3 3 4 4 3 3 3 3
Wind_Direction
214 201 195 189 186 186 190 193 189 182 165 166 176 185 211 214 209 210 208 205 201 185 169 178 186 176 189 204 170 147 122 57 97 78 7 350 348 338 283 248 249 258 243
205 202 200 196 192 191 196 194 193 182 183 190 183 180 176 189 202 214 194 197 194 188 183 178 189 183 178 177 158 150 140 170 128 126 102 360 345 346 351 332 254 283 269
206 205 200 201 195 196 197 201 195 189 193 188 159 140 109 77 111 211 217 208 195 195 190 183 183 188 181 195 204 182 172 185 197 144 145 153 227 305 332 327 322 305 297
205 205 201 199 202 205 197 197 194 191 189 177 175 178 184 192 205 197 208 233 198 201 196 188 186 194 193 200 211 194 189 176 192 195 200 176 165 175 300 320 326 313 285
205 207 204 202 201 196 188 187 181 184 183 177 179 181 188 189 180 170 188 221 229 210 204 194 193 200 207 214 214 199 188 186 183 179 172 162 145 174 183 256 301 323 306
206 206 201 192 190 182 177 177 175 189 185 179 183 182 185 183 175 183 195 217 226 221 218 191 186 199 204 213 216 205 195 200 191 185 174 173 177 190 187 218 245 270 291
199 196 189 187 189 186 184 183 181 195 192 185 190 192 191 187 193 197 200 204 209 218 227 200 185 201 206 205 199 194 205 197 192 201 202 196 202 181 176 184 219 255 286
186 193 195 190 191 193 189 187 191 199 194 193 199 199 197 196 204 202 200 203 206 210 212 200 191 194 195 201 192 201 218 204 205 212 203 202 210 191 186 185 181 217 286
186 186 185 185 189 193 200 200 198 200 200 201 201 204 201 199 203 200 198 200 205 202 200 193 189 190 189 191 188 200 216 202 205 213 211 215 224 208 207 193 183 181 216
179 171 172 179 188 193 199 203 203 205 203 200 204 207 205 204 201 191 194 198 202 201 197 196 190 193 194 193 193 204 220 198 219 217 203 216 226 210 200 197 195 191 193
180 180 171 181 180 176 179 193 199 202 204 205 205 204 205 205 200 198 204 203 202 198 199 197 198 200 201 201 198 214 211 209 226 228 214 227 208 190 197 189 189 191 184
191 161 113 102 125 157 176 194 204 204 208 203 198 202 204 201 204 211 212 201 199 200 202 200 198 202 207 206 205 216 217 214 221 229 220 230 218 194 200 197 198 194 189
76 66 65 80 119 144 168 195 207 211 209 192 193 199 203 200 204 211 208 199 200 206 203 201 204 209 212 213 214 213 216 220 223 223 215 220 201 206 208 203 206 203 192
124 111 96 22 76 121 153 162 195 202 200 188 190 199 208 207 205 196 195 201 205 211 212 212 211 214 215 214 215 212 219 224 226 224 218 213 207 207 206 205 200 184 167
170 192 206 251 309 27 86 138 159 164 169 172 186 204 206 205 201 197 196 192 195 212 211 204 211 216 214 220 213 208 211 207 213 222 223 217 201 193 190 189 184 169 169
211 222 225 229 231 203 196 187 190 161 137 153 189 191 181 191 202 205 197 188 186 192 191 197 208 221 231 228 207 197 199 198 199 210 221 209 178 166 151 151 165 171 178
214 214 218 220 223 209 185 179 184 143 141 156 165 165 170 185 210 210 195 194 189 184 190 199 205 228 240 223 206 194 189 191 197 196 194 198 180 158 155 133 130 151 170
211 211 212 211 204 175 150 132 145 154 156 159 171 175 168 183 194 189 194 196 189 190 202 212 218 230 244 223 202 188 186 192 198 197 195 189 190 186 165 155 139 145 196
208 204 202 198 181 177 166 145 152 165 167 193 225 233 208 189 189 198 205 203 196 205 213 212 216 226 245 223 197 180 183 193 203 200 195 192 198 194 167 162 163 162 294
186 176 170 164 172 184 163 151 175 186 212 225 233 230 218 203 207 215 214 208 203 213 217 224 225 224 233 223 199 179 177 188 206 215 216 203 196 194 181 178 177 195 233
171 160 156 164 181 170 157 160 181 220 246 249 245 240 228 220 221 226 217 197 197 202 207 217 237 229 223 215 201 185 187 192 197 208 221 221 197 197 194 185 195 211 209
167 163 156 163 166 166 161 171 210 229 218 202 233 247 243 234 218 203 213 197 188 199 214 218 239 240 226 209 201 196 199 192 194 208 216 216 201 199 201 196 196 183 171
172 166 158 152 177 185 171 191 221 209 188 167 235 264 270 275 214 197 204 203 195 205 218 217 230 243 237 219 205 202 201 197 200 211 209 203 194 191 196 197 171 161 169
162 158 153 164 201 217 207 211 207 183 173 192 232 243 223 264 277 239 223 218 220 220 226 229 232 234 229 223 215 209 204 201 206 213 204 184 170 170 180 175 172 178 184
165 163 167 182 208 215 219 217 194 175 181 201 220 233 226 215 235 252 251 237 232 223 222 227 223 214 227 233 207 193 197 196 191 166 161 170 171 183 196 202 196 187 177
151 157 169 182 205 214 221 214 192 180 177 197 226 225 231 233 217 218 309 349 294 270 235 232 224 228 225 214 202 208 204 186 165 156 182 192 202 209 210 210 214 207 205
Height
1514 1516 1518 1520 1522 1524 1525 1528 1529 1530 1532 1533 1535 1536 1537 1538 1539 1540 1541 1542 1542 1543 1543 1543 1543 1543 1543 1544 1543 1543 1543 1543 1543 1543 1543 1544 1544 1544 1544 1545 1545 1545 1545
1512 1514 1516 1518 1519 1522 1523 1525 1527 1529 1530 1532 1533 1535 1536 1537 1538 1539 1540 1541 1541 1542 1542 1542 1542 1542 1542 1542 1542 1542 1542 1542 1542 1542 1542 1542 1544 1543 1543 1543 1544 1544 1544
1509 1511 1513 1515 1517 1519 1521 1523 1526 1527 1529 1531 1532 1533 1535 1536 1537 1538 1539 1540 1540 1541 1541 1541 1542 1542 1542 1542 1542 1542 1541 1541 1541 1541 1542 1541 1541 1542 1542 1542 1542 1542 1542
1506 1508 1510 1512 1514 1516 1519 1522 1524 1526 1527 1529 1530 1531 1532 1533 1535 1536 1537 1538 1539 1540 1540 1540 1541 1541 1541 1540 1541 1540 1540 1540 1540 1540 1540 1540 1540 1540 1540 1541 1541 1541 1541
1503 1505 1506 1508 1511 1514 1517 1519 1521 1523 1525 1527 1528 1529 1530 1531 1533 1534 1535 1536 1537 1538 1539 1539 1539 1539 1539 1539 1539 1539 1539 1539 1538 1538 1538 1538 1538 1538 1539 1538 1539 1539 1539
1499 1501 1504 1507 1509 1512 1514 1517 1519 1521 1523 1524 1526 1527 1528 1529 1530 1532 1533 1534 1535 1536 1537 1537 1538 1538 1538 1538 1538 1538 1537 1537 1537 1537 1537 1537 1537 1537 1537 1537 1536 1537 1537
1496 1498 1501 1503 1506 1508 1511 1513 1516 1518 1520 1521 1523 1524 1526 1527 1528 1529 1531 1532 1533 1533 1534 1535 1535 1536 1536 1536 1536 1536 1536 1536 1535 1535 1535 1535 1535 1535 1535 1535 1535 1535 1535
1493 1496 1498 1501 1503 1506 1508 1510 1512 1514 1517 1518 1520 1521 1523 1524 1526 1527 1528 1529 1530 1531 1532 1533 1533 1533 1534 1534 1534 1534 1534 1534 1533 1533 1533 1533 1533 1533 1533 1533 1533 1533 1533
1491 1493 1496 1498 1501 1503 1505 1507 1509 1511 1513 1515 1517 1518 1520 1521 1523 1524 1525 1526 1528 1528 1529 1530 1530 1531 1531 1531 1532 1531 1531 1531 1531 1531 1531 1531 1531 1531 1531 1531 1531 1532 1531
1490 1492 1494 1496 1498 1500 1503 1504 1506 1507 1509 1511 1513 1515 1516 1518 1520 1521 1522 1524 1524 1526 1526 1527 1527 1528 1529 1529 1529 1529 1529 1529 1529 1529 1529 1529 1528 1528 1528 1528 1528 1529 1529
1490 1491 1493 1495 1497 1499 1500 1502 1503 1505 1506 1508 1510 1511 1513 1515 1517 1518 1519 1521 1522 1522 1523 1524 1524 1525 1526 1526 1526 1526 1526 1526 1526 1526 1526 1526 1526 1526 1526 1525 1525 1525 1526
1490 1491 1492 1493 1495 1497 1498 1500 1501 1502 1503 1505 1506 1508 1510 1512 1513 1515 1516 1518 1519 1519 1520 1521 1522 1522 1522 1523 1523 1523 1523 1523 1523 1523 1523 1523 1523 1523 1523 1523 1523 1523 1523
1489 1490 1491 1493 1494 1495 1496 1498 1499 1500 1501 1502 1504 1505 1507 1509 1510 1512 1513 1515 1516 1516 1517 1518 1518 1518 1518 1519 1519 1520 1520 1520 1520 1520 1520 1520 1521 1520 1520 1520 1520 1520 1520
1489 1490 1491 1492 1493 1494 1495 1496 1496 1497 1498 1500 1501 1503 1504 1506 1507 1508 1510 1511 1513 1513 1514 1515 1515 1515 1515 1515 1515 1516 1516 1517 1517 1517 1517 1517 1517 1517 1517 1517 1517 1517 1516
1488 1489 1490 1491 1492 1492 1493 1494 1494 1495 1496 1497 1498 1499 1501 1503 1504 1505 1506 1507 1509 1510 1510 1511 1512 1512 1512 1512 1512 1512 1513 1513 1513 1514 1514 1514 1514 1514 1514 1514 1514 1514 1513
1487 1488 1489 1490 1490 1491 1491 1492 1493 1493 1494 1494 1495 1496 1498 1499 1500 1501 1502 1503 1504 1505 1507 1507 1508 1508 1509 1509 1509 1509 1510 1510 1510 1510 1511 1511 1511 1511 1511 1511 1511 1511 1511
1485 1486 1487 1488 1489 1489 1490 1490 1492 1492 1492 1492 1493 1494 1494 1495 1496 1497 1498 1499 1500 1501 1502 1503 1504 1505 1506 1506 1506 1506 1507 1507 1507 1508 1508 1508 1508 1508 1508 1508 1508 1508 1507
1482 1484 1485 1486 1487 1487 1489 1489 1490 1490 1490 1490 1491 1491 1491 1492 1493 1493 1494 1495 1497 1498 1499 1500 1500 1501 1502 1503 1503 1503 1503 1504 1504 1504 1505 1505 1505 1505 1505 1505 1505 1505 1504
1479 1481 1483 1484 1485 1486 1486 1487 1487 1488 1488 1488 1488 1489 1489 1489 1490 1490 1491 1492 1493 1494 1495 1496 1497 1498 1499 1500 1500 1500 1500 1500 1501 1501 1501 1501 1501 1502 1502 1502 1501 1501 1501
1478 1479 1481 1482 1483 1484 1485 1485 1485 1485 1485 1486 1486 1487 1487 1487 1487 1488 1489 1489 1490 1491 1492 1493 1493 1494 1495 1496 1496 1496 1497 1497 1497 1497 1497 1497 1498 1498 1498 1498 1498 1498 1498
1476 1478 1479 1480 1481 1482 1482 1483 1483 1483 1484 1484 1484 1484 1484 1484 1485 1486 1486 1486 1487 1488 1488 1489 1490 1490 1490 1491 1492 1492 1493 1493 1493 1493 1494 1494 1494 1495 1495 1495 1495 1495 1495
1473 1475 1476 1477 1479 1479 1480 1480 1481 1482 1482 1482 1482 1482 1482 1482 1482 1483 1483 1483 1484 1484 1485 1485 1485 1485 1486 1486 1487 1488 1489 1489 1489 1490 1491 1491 1491 1491 1492 1491 1491 1492 1492
1471 1472 1474 1475 1477 1478 1478 1478 1479 1480 1480 1480 1480 1480 1480 1480 1480 1480 1480 1481 1481 1481 1481 1481 1480 1481 1481 1482 1483 1484 1484 1485 1486 1486 1487 1488 1488 1488 1488 1488 1488 1488 1489
1468 1470 1471 1472 1474 1475 1476 1477 1477 1477 1478 1477 1477 1477 1477 1477 1477 1477 1478 1478 1477 1477 1477 1477 1477 1477 1477 1478 1478 1479 1480 1481 1482 1483 1484 1484 1484 1484 1484 1485 1485 1485 1485
1466 1467 1469 1470 1472 1473 1474 1474 1474 1475 1475 1475 1475 1475 1475 1474 1474 1474 1474 1474 1474 1474 1474 1474 1474 1473 1473 1474 1475 1475 1476 1477 1478 1479 1480 1480 1480 1480 1480 1481 1481 1481 1482
1464 1465 1467 1468 1469 1470 1471 1472 1472 1472 1472 1472 1472 1472 1472 1472 1471 1471 1471 1471 1471 1471 1470 1470 1470 1470 1471 1470 1470 1471 1472 1473 1474 1475 1475 1475 1476 1476 1476 1477 1477 1478 1478